Regional Weather Roundup
Issued by NWS Goodland, KS

Home | Current Version | Previous Version | Graphics & Text | Print | Product List | Glossary On
Versions: 1 2 3 4 5 6 7 8 9 10 11 12 13 14 15 16 17 18 19 20 21 22 23 24 25 26 27 28 29 30 31 32 33 34 35 36 37 38 39 40 41 42 43 44 45 46 47 48 49 50
000
ASUS43 KGLD 291759
RWRGLD

GOODLAND FORECAST AREA HOURLY WEATHER ROUNDUP
NATIONAL WEATHER SERVICE GOODLAND KS
1200 PM MDT FRI JUL 29 2016

...OFFICIAL OBSERVATIONS...

CITY           SKY/WX    TMP DP  RH WIND       PRES   REMARKS
GOODLAND KS    LGT RAIN  68  62  81 SE5       30.16F
HILL CITY KS   MOSUNNY   81  65  58 E5        30.10S
IMPERIAL NEB   CLOUDY    75  61  61 SW8       30.15S
MCCOOK NEB     PTSUNNY   79  61  53 CALM      30.12F
AKRON CO       CLOUDY    71  56  58 SE18      30.19F
BURLINGTON CO  MOSUNNY   74  61  63 E14       30.18F
LIMON CO       SUNNY     76  54  46 SE12      30.21F
$$

...UNOFFICIAL OBSERVATIONS...

CITY           SKY/WX    TMP DP  RH WIND       PRES   REMARKS
LENORA KS        N/A     79  32  18 MISG        N/A
NORTON KS      PTSUNNY   79  55  44 SE5       30.10S
SHARON SPRINGS   N/A     74  66  75 S8G16       N/A
KIT CARSON CO    N/A     73  63  71 MISG        N/A
YUMA CO          N/A     75  60  60 SE13        N/A
$$




USA.gov is the U.S. government's official web portal to all federal, state and local government web resources and services.